When you browse on this site, cookies collect data to enhance your experience and personalize the content and advertising you see.
Visit our Privacy Policy to learn more. By continuing to use the site, you agree to this use of cookies and data.
  • In Portugal
  • List of Countries
  • For 7 days
  • Water Temperature
  • Satellite Maps
  • Weather Map
  • Weather Widgets
  • user-avatar
    Login

    Hourly Weather Sydney

    Today, 24 January, Thursday

    Time Temperature Precipitation Wind Pressure Humidity
    00:00 +23°C° 0.3 mm 6 mps 761 mmHg 82%
    01:00 +23°C° 0.3 mm 5 mps 760 mmHg 83%
    02:00 +23°C° 0.1 mm 5 mps 760 mmHg 84%
    03:00 +23°C° 0.1 mm 5 mps 760 mmHg 85%
    04:00 +23°C° 0 mm 5 mps 760 mmHg 85%
    05:00 +23°C° 0 mm 5 mps 761 mmHg 85%
    06:00 +23°C° 0 mm 5 mps 761 mmHg 85%
    07:00 +23°C° 0 mm 5 mps 761 mmHg 85%
    08:00 +25°C° 0 mm 5 mps 761 mmHg 80%
    09:00 +26°C° 0 mm 5 mps 761 mmHg 75%
    10:00 +26°C° 0 mm 4 mps 762 mmHg 74%
    11:00 +26°C° 0 mm 4 mps 761 mmHg 73%
    12:00 +27°C° 0 mm 4 mps 761 mmHg 72%
    13:00 +27°C° 0 mm 4 mps 761 mmHg 72%
    14:00 +28°C° 0 mm 4 mps 760 mmHg 70%
    15:00 +29°C° 0 mm 4 mps 760 mmHg 68%
    16:00 +29°C° 0 mm 4 mps 760 mmHg 66%
    17:00 +28°C° 0 mm 4 mps 760 mmHg 72%
    18:00 +27°C° 0 mm 3 mps 760 mmHg 78%
    19:00 +26°C° 0 mm 3 mps 760 mmHg 84%
    20:00 +26°C° 0 mm 2 mps 761 mmHg 87%
    21:00 +26°C° 0 mm 2 mps 761 mmHg 89%
    22:00 +25°C° 0 mm 1 mps 761 mmHg 91%
    23:00 +25°C° 0 mm 1 mps 761 mmHg 92%

    Tomorrow, 25 January, Friday

    Time Temperature Precipitation Wind Pressure Humidity
    00:00 +25°C° 0 mm 1 mps 761 mmHg 92%
    01:00 +23°C° 0 mm 0 mps 761 mmHg 92%
    02:00 +23°C° 0 mm 0 mps 760 mmHg 92%
    03:00 +25°C° 0 mm 1 mps 760 mmHg 93%
    04:00 +25°C° 0 mm 1 mps 760 mmHg 93%
    05:00 +25°C° 0 mm 1 mps 760 mmHg 90%
    06:00 +26°C° 0 mm 2 mps 760 mmHg 86%
    07:00 +26°C° 0 mm 2 mps 760 mmHg 83%
    08:00 +28°C° 0 mm 2 mps 759 mmHg 75%
    09:00 +30°C° 0 mm 3 mps 759 mmHg 66%
    10:00 +33°C° 0 mm 3 mps 759 mmHg 58%
    11:00 +34°C° 0 mm 4 mps 758 mmHg 53%
    12:00 +36°C° 0 mm 4 mps 758 mmHg 49%
    13:00 +37°C° 0 mm 5 mps 758 mmHg 45%
    14:00 +36°C° 0 mm 6 mps 757 mmHg 49%
    15:00 +36°C° 0 mm 6 mps 756 mmHg 52%
    16:00 +35°C° 0 mm 7 mps 756 mmHg 56%
    17:00 +33°C° 0 mm 7 mps 756 mmHg 62%
    18:00 +32°C° 0 mm 6 mps 756 mmHg 67%
    19:00 +29°C° 0 mm 6 mps 756 mmHg 73%
    20:00 +29°C° 0 mm 6 mps 756 mmHg 74%
    21:00 +29°C° 0 mm 5 mps 757 mmHg 76%
    22:00 +28°C° 0 mm 5 mps 757 mmHg 77%
    23:00 +28°C° 0 mm 4 mps 757 mmHg 79%

    Day after tomorrow, 26 January, Saturday

    Time Temperature Precipitation Wind Pressure Humidity
    00:00 +27°C° 0 mm 4 mps 756 mmHg 81%
    01:00 +27°C° 0 mm 3 mps 756 mmHg 82%
    02:00 +27°C° 0 mm 3 mps 755 mmHg 83%
    03:00 +27°C° 0 mm 3 mps 755 mmHg 84%
    04:00 +26°C° 0 mm 3 mps 755 mmHg 84%
    05:00 +27°C° 0 mm 3 mps 755 mmHg 78%
    06:00 +28°C° 0 mm 3 mps 756 mmHg 72%
    07:00 +29°C° 0 mm 3 mps 756 mmHg 66%
    08:00 +32°C° 0 mm 2 mps 756 mmHg 56%
    09:00 +36°C° 0 mm 2 mps 756 mmHg 46%
    10:00 +39°C° 0 mm 1 mps 756 mmHg 36%
    11:00 +40°C° 0 mm 3 mps 755 mmHg 35%
    12:00 +41°C° 0 mm 4 mps 755 mmHg 34%
    13:00 +42°C° 0 mm 5 mps 754 mmHg 33%
    14:00 +42°C° 0 mm 5 mps 754 mmHg 34%
    15:00 +41°C° 0 mm 5 mps 754 mmHg 35%
    16:00 +41°C° 0 mm 6 mps 753 mmHg 36%
    17:00 +39°C° 0 mm 6 mps 753 mmHg 43%
    18:00 +36°C° 0 mm 6 mps 753 mmHg 49%
    19:00 +34°C° 0 mm 6 mps 754 mmHg 56%
    20:00 +33°C° 0 mm 6 mps 754 mmHg 58%
    21:00 +33°C° 0 mm 6 mps 754 mmHg 59%
    22:00 +32°C° 0 mm 6 mps 754 mmHg 61%
    23:00 +32°C° 0 mm 5 mps 754 mmHg 63%

    27 January, Sunday

    Time Temperature Precipitation Wind Pressure Humidity
    00:00 +30°C° 0 mm 5 mps 754 mmHg 65%
    01:00 +30°C° 0 mm 4 mps 754 mmHg 67%
    02:00 +29°C° 0.1 mm 3 mps 754 mmHg 68%
    03:00 +29°C° 0.1 mm 2 mps 754 mmHg 70%
    04:00 +28°C° 0.1 mm 1 mps 754 mmHg 71%
    05:00 +29°C° 0 mm 1 mps 755 mmHg 69%
    06:00 +29°C° 0 mm 1 mps 755 mmHg 68%
    07:00 +30°C° 0 mm 1 mps 755 mmHg 66%
    08:00 +31°C° 0 mm 2 mps 755 mmHg 61%
    09:00 +33°C° 0 mm 3 mps 755 mmHg 57%
    10:00 +35°C° 0 mm 4 mps 756 mmHg 52%
    11:00 +33°C° 0 mm 5 mps 755 mmHg 58%
    12:00 +32°C° 0 mm 6 mps 755 mmHg 63%
    13:00 +30°C° 0 mm 6 mps 755 mmHg 69%
    14:00 +30°C° 0.5 mm 6 mps 755 mmHg 69%
    15:00 +30°C° 0.5 mm 6 mps 755 mmHg 70%
    16:00 +30°C° 0.5 mm 5 mps 755 mmHg 71%
    17:00 +28°C° 1.1 mm 5 mps 756 mmHg 76%
    18:00 +27°C° 1.1 mm 5 mps 756 mmHg 82%
    19:00 +26°C° 1.1 mm 4 mps 757 mmHg 87%
    20:00 +26°C° 1 mm 5 mps 758 mmHg 87%
    21:00 +24°C° 1 mm 6 mps 758 mmHg 88%
    22:00 +24°C° 1 mm 7 mps 759 mmHg 89%
    23:00 +24°C° 0.4 mm 6 mps 759 mmHg 89%

    28 January, Monday

    Time Temperature Precipitation Wind Pressure Humidity
    00:00 +23°C° 0.4 mm 5 mps 759 mmHg 90%
    01:00 +23°C° 0.4 mm 4 mps 759 mmHg 91%
    02:00 +23°C° 0.1 mm 4 mps 759 mmHg 90%
    03:00 +24°C° 0.1 mm 3 mps 759 mmHg 90%
    04:00 +24°C° 0.1 mm 3 mps 759 mmHg 90%
    05:00 +25°C° 0 mm 3 mps 759 mmHg 88%
    06:00 +25°C° 0 mm 3 mps 760 mmHg 87%
    07:00 +25°C° 0 mm 4 mps 760 mmHg 85%
    08:00 +27°C° 0 mm 3 mps 760 mmHg 79%
    09:00 +28°C° 0 mm 2 mps 760 mmHg 73%
    10:00 +30°C° 0 mm 1 mps 760 mmHg 67%
    11:00 +31°C° 0.1 mm 2 mps 759 mmHg 62%
    12:00 +32°C° 0.1 mm 2 mps 759 mmHg 58%
    13:00 +35°C° 0.1 mm 2 mps 759 mmHg 53%
    14:00 +34°C° 0.3 mm 3 mps 758 mmHg 57%
    15:00 +34°C° 0.3 mm 4 mps 758 mmHg 60%
    16:00 +33°C° 0.3 mm 5 mps 758 mmHg 64%
    17:00 +30°C° 1.3 mm 4 mps 758 mmHg 71%
    18:00 +29°C° 1.3 mm 4 mps 758 mmHg 79%
    19:00 +27°C° 1.3 mm 3 mps 759 mmHg 87%
    20:00 +27°C° 0.8 mm 3 mps 759 mmHg 87%
    21:00 +27°C° 0.8 mm 3 mps 760 mmHg 87%
    22:00 +27°C° 0.8 mm 2 mps 760 mmHg 88%
    23:00 +27°C° 0 mm 2 mps 760 mmHg 88%

    29 January, Tuesday

    Time Temperature Precipitation Wind Pressure Humidity
    00:00 +27°C° 0 mm 3 mps 760 mmHg 88%
    01:00 +26°C° 0 mm 3 mps 760 mmHg 88%
    02:00 +26°C° 0 mm 3 mps 759 mmHg 89%
    03:00 +26°C° 0 mm 2 mps 759 mmHg 90%
    04:00 +26°C° 0 mm 2 mps 759 mmHg 90%
    05:00 +26°C° 0 mm 2 mps 760 mmHg 89%
    06:00 +27°C° 0 mm 2 mps 760 mmHg 88%
    07:00 +27°C° 0 mm 2 mps 760 mmHg 86%
    08:00 +28°C° 0 mm 2 mps 760 mmHg 82%
    09:00 +29°C° 0 mm 3 mps 760 mmHg 77%
    10:00 +30°C° 0 mm 3 mps 760 mmHg 73%
    11:00 +33°C° 0 mm 4 mps 760 mmHg 65%
    12:00 +34°C° 0 mm 5 mps 759 mmHg 58%
    13:00 +36°C° 0 mm 6 mps 759 mmHg 50%
    14:00 +35°C° 0 mm 6 mps 758 mmHg 52%
    15:00 +34°C° 0 mm 7 mps 758 mmHg 53%
    16:00 +34°C° 0 mm 8 mps 758 mmHg 54%
    17:00 +32°C° 0 mm 7 mps 758 mmHg 58%
    18:00 +30°C° 0 mm 7 mps 759 mmHg 63%
    19:00 +28°C° 0 mm 7 mps 759 mmHg 68%
    20:00 +28°C° 0 mm 6 mps 759 mmHg 69%
    21:00 +27°C° 0 mm 5 mps 760 mmHg 71%
    22:00 +27°C° 0 mm 3 mps 760 mmHg 72%
    23:00 +27°C° 0 mm 4 mps 760 mmHg 74%
    Show more